DW8463 Weather Reports


time (UTC)temp
F
wind
direction
speed
knots
gust
knots
rain 1hr
in
rain 24hr
in
rain mn
in
humidity
%
barometer
mb
20260902151303 74 171 4.3 8.7 0.00 0.92 0.91 89 1010.7
20260902150303 73 132 3.5 7.0 0.00 0.92 0.91 91 1010.8
20260902145803 72 167 1.7 7.8 0.00 0.92 0.91 100 1010.8
20260902144803 71 167 0.9 6.1 0.00 0.92 0.91 100 1010.6
20260902144304 71 159 2.6 7.0 0.00 0.92 0.91 100 1010.6
20260902143803 71 116 2.6 7.8 0.00 0.92 0.91 100 1010.6
20260902143303 70 113 2.6 7.8 0.00 0.92 0.91 100 1010.7
20260902142803 70 216 1.7 7.0 0.00 0.92 0.91 100 1010.9
20260902142306 69 146 4.3 10.4 0.00 0.92 0.91 100 1011.0
20260902141803 69 120 3.5 8.7 0.00 0.92 0.91 100 1011.0
20260902141303 69 127 0.9 4.3 0.00 0.92 0.91 100 1011.0
20260902140803 68 142 0.0 5.2 0.00 0.92 0.91 100 1011.0
20260902140303 68 138 1.7 6.1 0.00 0.92 0.91 100 1011.0
20260902135803 68 141 3.5 7.8 0.00 0.92 0.91 100 1011.0
20260902135306 67 134 6.1 8.7 0.00 0.92 0.91 100 1010.9
20260902134803 67 162 0.0 5.2 0.00 0.92 0.91 100 1010.9
20260902134303 67 138 2.6 5.2 0.00 0.92 0.91 100 1011.0
20260902133803 66 131 1.7 4.3 0.00 0.92 0.91 100 1011.0
20260902133303 66 210 1.7 4.3 0.00 0.92 0.91 100 1011.2
20260902132306 65 195 4.3 6.1 0.00 0.92 0.91 100 1011.3
20260902131803 65 195 2.6 6.1 0.00 0.92 0.91 100 1011.4
20260902131304 65 187 2.6 6.1 0.00 0.92 0.91 100 1011.4
20260902130803 65 172 2.6 5.2 0.00 0.92 0.91 100 1011.4
20260902130303 64 95 1.7 4.3 0.00 0.92 0.91 100 1011.3
20260902125804 64 0 0.9 5.2 0.01 0.92 0.91 100 1011.6
20260902125305 64 0 1.7 4.3 0.01 0.92 0.91 100 1011.6
20260902124804 64 0 1.7 2.6 0.01 0.92 0.91 100 1011.8
20260902124303 64 0 0.9 2.6 0.01 0.92 0.91 100 1011.6
20260902123804 63 0 0.9 2.6 0.01 0.92 0.91 100 1011.3
20260902123303 63 0 2.6 4.3 0.01 0.92 0.91 100 1011.3
20260902122305 63 0 6.1 10.4 0.01 0.92 0.91 100 1010.4
20260902121803 63 0 0.9 2.6 0.01 0.92 0.91 100 1011.0
20260902121303 63 0 1.7 2.6 0.01 0.92 0.91 100 1010.5
20260902120303 63 0 0.9 2.6 0.01 0.92 0.91 100 1010.8
20260902115803 63 0 0.9 2.6 0.00 0.91 0.90 100 1010.8
20260902115306 63 0 0.0 1.7 0.00 0.91 0.90 100 1011.0
20260902114803 63 0 1.7 5.2 0.00 0.91 0.90 100 1011.0
20260902114303 63 0 0.0 1.7 0.00 0.91 0.90 100 1010.8
20260902113803 63 0 1.7 2.6 0.00 0.91 0.90 100 1010.9
20260902113303 63 0 0.9 2.6 0.00 0.91 0.90 100 1011.0
20260902112803 63 0 0.9 2.6 0.00 0.91 0.90 100 1011.2
20260902112305 63 0 1.7 2.6 0.00 0.91 0.90 100 1011.2
20260902111803 63 0 0.9 2.6 0.01 0.91 0.90 100 1011.4
20260902111303 63 0 1.7 2.6 0.01 0.91 0.90 100 1011.3
20260902110803 63 0 1.7 2.6 0.01 0.91 0.90 100 1011.6
20260902110303 63 0 0.0 2.6 0.01 0.91 0.90 100 1011.9
20260902105306 63 0 0.9 4.3 0.01 0.91 0.90 100 1012.2
20260902104804 63 0 0.0 2.6 0.01 0.91 0.90 100 1012.2
20260902104303 63 0 0.9 2.6 0.01 0.91 0.90 100 1012.4
20260902103803 64 0 1.7 5.2 0.01 0.91 0.90 100 1012.8
20260902103303 64 0 1.7 7.0 0.01 0.91 0.90 100 1013.0
20260902102804 64 0 0.9 4.3 0.01 0.91 0.90 100 1012.9
20260902102307 64 0 2.6 13.0 0.01 0.91 0.90 100 1013.1
20260902101804 64 0 1.7 4.3 0.00 0.90 0.89 100 1013.1
20260902101303 64 0 0.9 5.2 0.00 0.90 0.89 100 1012.5
20260902100804 64 0 1.7 5.2 0.00 0.90 0.89 100 1012.4
20260902100303 64 0 0.9 4.3 0.00 0.90 0.89 100 1012.2
20260902095804 64 0 0.9 2.6 0.00 0.90 0.89 100 1011.4
20260902095306 64 0 0.9 1.7 0.00 0.90 0.89 100 1011.2
20260902094804 64 0 0.0 0.9 0.00 0.90 0.89 100 1010.9
20260902094304 64 0 0.0 0.9 0.00 0.90 0.89 100 1010.8
20260902093804 64 0 0.0 0.0 0.00 0.90 0.89 100 1010.7
20260902093303 64 0 0.0 0.9 0.00 0.90 0.89 100 1010.7
20260902092803 64 0 0.9 4.3 0.00 0.90 0.89 100 1010.5
20260902092305 64 0 0.9 2.6 0.00 0.90 0.89 100 1010.5
20260902091803 64 0 0.0 2.6 0.00 0.90 0.89 100 1010.7
20260902091303 64 0 0.9 2.6 0.00 0.90 0.89 100 1010.6
20260902090803 64 0 0.0 2.6 0.00 0.90 0.89 100 1010.7
20260902090303 64 0 0.9 2.6 0.00 0.90 0.89 100 1010.8
20260902085803 64 0 1.7 2.6 0.00 0.90 0.89 100 1010.6
20260902085306 64 0 1.7 5.2 0.00 0.90 0.89 100 1010.6
20260902084803 64 0 0.0 2.6 0.00 0.90 0.89 100 1011.0
20260902084303 64 0 1.7 5.2 0.01 0.90 0.89 100 1010.8
20260902083803 64 0 2.6 7.0 0.01 0.90 0.89 100 1010.5
20260902083303 64 0 1.7 7.8 0.01 0.90 0.89 100 1010.5
20260902082803 64 0 0.9 2.6 0.02 0.90 0.89 100 1011.1
20260902082308 64 0 3.5 8.7 0.04 0.90 0.89 100 1010.5
20260902081803 64 0 0.9 5.2 0.04 0.90 0.89 100 1011.1
20260902081303 64 0 5.2 10.4 0.04 0.90 0.89 100 1010.2
20260902080803 64 0 3.5 7.8 0.05 0.90 0.89 100 1010.8
20260902080303 64 0 2.6 8.7 0.05 0.90 0.89 100 1010.6
20260902075803 64 0 2.6 8.7 0.06 0.90 0.89 100 1010.3
20260902074803 64 0 4.3 10.4 0.12 0.90 0.89 100 1010.0
20260902074304 64 0 3.5 8.7 0.15 0.89 0.88 100 1010.3
20260902073803 64 0 1.7 4.3 0.25 0.89 0.88 100 1010.3
20260902073303 64 0 2.6 4.3 0.37 0.89 0.88 100 1010.7
20260902072804 64 0 3.5 10.4 0.55 0.88 0.87 100 1010.8
20260902072309 64 0 4.3 8.7 0.61 0.86 0.85 100 1011.1
20260902071803 64 0 3.5 13.0 0.65 0.86 0.85 100 1011.2
20260902071303 64 0 6.1 14.8 0.66 0.86 0.85 100 1011.1
20260902070303 66 0 7.0 12.2 0.65 0.85 0.84 100 1012.9
20260902065306 66 0 5.2 8.7 0.76 0.82 0.81 100 1015.4
20260902064804 66 0 4.3 8.7 0.75 0.78 0.77 100 1016.3
20260902063803 67 0 1.7 10.4 0.61 0.64 0.63 100 1014.9
20260902063303 68 0 6.1 18.2 0.49 0.52 0.51 100 1015.2
20260902062803 68 0 5.2 14.8 0.30 0.33 0.32 100 1014.0
20260902061804 68 0 1.7 2.6 0.18 0.21 0.20 100 1010.7
20260902061303 68 0 0.9 4.3 0.17 0.20 0.19 100 1010.3
20260902060804 68 0 7.8 15.6 0.18 0.20 0.19 100 1009.4
20260902060303 68 0 7.8 11.3 0.19 0.20 0.19 100 1010.3
20260902055803 68 0 5.2 11.3 0.16 0.18 0.17 100 1010.6
20260902055306 69 0 5.2 10.4 0.05 0.06 0.05 100 1010.8
20260902054803 69 0 4.3 10.4 0.02 0.03 0.02 100 1010.1
20260902054303 70 0 3.5 7.8 0.02 0.03 0.02 100 1010.5
20260902053804 70 0 2.6 10.4 0.02 0.03 0.02 100 1010.7
20260902053303 70 0 4.3 5.2 0.02 0.03 0.02 100 1010.5
20260902052803 70 0 0.9 2.6 0.02 0.03 0.02 100 1009.9
20260902052306 70 0 0.9 2.6 0.02 0.03 0.02 100 1010.4
20260902051804 70 0 0.0 0.9 0.02 0.03 0.02 100 1010.8
20260902051303 70 0 0.0 0.9 0.02 0.03 0.02 100 1010.8
20260902050811 70 0 0.9 1.7 0.01 0.02 0.01 100 1010.7
20260902045803 70 0 0.0 1.7 0.01 0.01 0.01 100 1011.2
20260902045306 70 0 0.0 0.0 0.00 0.00 0.00 100 1011.1
20260902044803 70 0 0.0 0.0 0.00 0.00 0.00 100 1011.2
20260902044304 70 0 0.0 0.0 0.00 0.00 0.00 100 1010.5
20260902043803 70 0 0.0 0.0 0.00 0.00 0.00 100 1010.6
20260902043304 70 0 0.0 0.0 0.00 0.00 0.00 100 1010.4
20260902042803 70 0 0.0 0.0 0.00 0.00 0.00 100 1010.6
20260902042308 70 0 0.0 0.0 0.00 0.00 0.00 100 1010.9
20260902041803 70 0 0.0 0.0 0.00 0.00 0.00 100 1010.7
20260902041303 70 0 0.0 0.0 0.00 0.00 0.00 100 1010.4
20260902040803 70 0 0.0 0.0 0.00 0.00 0.00 100 1010.5
20260902040304 70 0 0.0 0.0 0.00 0.00 0.00 100 1010.7
20260902035305 69 0 0.0 0.0 0.00 0.00 0.00 100 1010.7
20260902034803 69 0 0.0 0.0 0.00 0.00 0.00 100 1010.9
20260902033803 70 0 0.0 0.0 0.00 0.00 0.00 100 1011.1
20260902033304 70 0 0.0 0.0 0.00 0.00 0.00 100 1011.3
20260902032804 70 0 0.0 0.0 0.00 0.00 0.00 100 1011.2
20260902032306 70 0 0.0 0.0 0.00 0.00 0.00 100 1011.3
20260902031803 70 0 0.0 0.0 0.00 0.00 0.00 100 1011.3
20260902031303 70 0 0.0 0.0 0.00 0.00 0.00 100 1011.3
20260902025804 71 0 0.0 0.0 0.00 0.00 0.00 100 1011.3
20260902025306 71 0 0.0 0.0 0.00 0.00 0.00 100 1011.2
20260902024303 71 0 0.0 0.0 0.00 0.00 0.00 100 1011.2
20260902023803 71 0 0.0 0.0 0.00 0.00 0.00 100 1011.1
20260902023304 71 0 0.0 0.0 0.00 0.00 0.00 100 1011.2
20260902022804 71 0 0.0 0.0 0.00 0.00 0.00 100 1011.2
20260902022306 71 0 0.0 0.0 0.00 0.00 0.00 100 1011.2
20260902021803 71 0 0.0 0.0 0.00 0.00 0.00 100 1011.1
20260902021304 71 0 0.0 0.0 0.00 0.00 0.00 100 1011.2
20260902020804 71 0 0.0 0.0 0.00 0.00 0.00 100 1011.2
20260902020303 71 0 0.0 0.0 0.00 0.00 0.00 100 1011.2
20260902015803 72 0 0.0 0.9 0.00 0.00 0.00 100 1011.1
20260902015306 72 0 0.0 0.0 0.00 0.00 0.00 100 1011.0
20260902014804 72 0 0.0 0.0 0.00 0.00 0.00 100 1011.0
20260902014304 72 306 0.0 0.0 0.00 0.00 0.00 100 1011.0
20260902013803 73 306 0.0 0.0 0.00 0.00 0.00 100 1011.0
20260902013304 73 306 0.0 0.0 0.00 0.00 0.00 100 1010.9
20260902012309 73 306 0.0 0.9 0.00 0.00 0.00 100 1010.9
20260902011803 74 306 0.0 0.0 0.00 0.00 0.00 100 1010.8
20260902011303 74 306 0.0 0.0 0.00 0.00 0.00 100 1010.8
20260902010803 74 306 0.0 0.0 0.00 0.00 0.00 100 1010.8
20260902010303 75 306 0.0 0.0 0.00 0.00 0.00 100 1010.8
20260902005803 75 306 0.0 0.0 0.00 0.00 0.00 93 1010.9
20260902005305 75 306 0.0 0.0 0.00 0.00 0.00 93 1010.9
20260902003803 76 306 0.0 0.0 0.00 0.00 0.00 93 1010.9
20260902003304 77 306 0.0 0.0 0.00 0.00 0.00 93 1010.9
20260902002803 77 306 0.0 0.0 0.00 0.00 0.00 93 1010.9
20260902001804 77 306 0.0 0.0 0.00 0.00 0.00 93 1011.0
20260902001303 78 306 0.0 0.0 0.00 0.00 0.00 93 1011.0
20260902000803 78 306 0.0 0.0 0.00 0.00 0.00 93 1011.0
20260902000304 78 306 0.0 0.0 0.00 0.00 0.00 93 1011.0
20260901235803 79 306 0.0 0.0 0.00 0.00 0.00 86 1011.0
20260901234803 79 306 0.0 0.0 0.00 0.00 0.00 86 1010.9
20260901234303 80 306 0.0 0.0 0.00 0.00 0.00 86 1010.8
20260901233303 80 306 0.0 0.0 0.00 0.00 0.00 86 1010.9
20260901232803 80 306 0.0 0.0 0.00 0.00 0.00 86 1010.9
20260901231803 81 306 0.0 1.7 0.00 0.00 0.00 86 1010.9
20260901231303 81 306 0.0 1.7 0.00 0.00 0.00 86 1010.8
20260901230303 80 306 0.0 0.0 0.00 0.00 0.00 86 1010.7
20260901224803 81 306 0.0 0.0 0.00 0.00 0.00 78 1010.6
20260901224303 82 306 0.0 0.0 0.00 0.00 0.00 78 1010.6
20260901223804 82 306 0.0 0.0 0.00 0.00 0.00 78 1010.6
20260901223304 83 306 0.0 0.9 0.00 0.00 0.00 78 1010.6
20260901222803 83 306 0.0 0.0 0.00 0.00 0.00 78 1010.8
20260901221803 83 267 0.9 2.6 0.00 0.00 0.00 78 1011.0
20260901221304 83 215 0.0 2.6 0.00 0.00 0.00 78 1011.0
20260901220803 84 197 0.0 4.3 0.00 0.00 0.00 78 1011.0
20260901220304 84 200 0.9 2.6 0.00 0.00 0.00 76 1010.9
20260901215803 84 217 1.7 4.3 0.00 0.00 0.00 67 1010.9
20260901215306 84 190 1.7 6.1 0.00 0.00 0.00 67 1010.9
20260901214803 84 193 1.7 5.2 0.00 0.00 0.00 67 1010.9
20260901214304 84 163 1.7 5.2 0.00 0.00 0.00 67 1010.8
20260901213803 84 193 0.9 2.6 0.00 0.00 0.00 67 1010.8
20260901213304 84 183 0.9 2.6 0.00 0.00 0.00 67 1010.8
20260901212803 84 201 0.0 0.0 0.00 0.00 0.00 67 1010.8
20260901212306 84 201 0.0 1.7 0.00 0.00 0.00 67 1010.6
20260901211304 84 211 1.7 4.3 0.00 0.00 0.00 67 1010.7
20260901210803 84 209 0.9 5.2 0.00 0.00 0.00 67 1010.9
20260901210304 84 199 0.9 2.6 0.00 0.00 0.00 67 1011.0
20260901205803 84 226 1.7 2.6 0.00 0.00 0.00 59 1010.8
20260901204803 85 191 1.7 2.6 0.00 0.00 0.00 59 1010.7
20260901204303 85 191 0.0 1.7 0.00 0.00 0.00 59 1010.9
20260901203803 86 191 0.9 2.6 0.00 0.00 0.00 59 1010.8
20260901203303 86 191 0.0 0.0 0.00 0.00 0.00 59 1010.7
20260901202306 85 191 0.0 2.6 0.00 0.00 0.00 59 1011.2
20260901201803 84 191 0.9 2.6 0.00 0.00 0.00 59 1011.3
20260901200803 83 191 0.0 0.0 0.00 0.00 0.00 59 1011.1
20260901200303 84 191 0.0 0.0 0.00 0.00 0.00 59 1011.4
20260901195804 84 191 0.0 0.0 0.00 0.00 0.00 59 1011.5
20260901194303 85 191 1.7 4.3 0.00 0.00 0.00 59 1011.5
20260901193803 85 238 0.0 1.7 0.00 0.00 0.00 59 1011.4
20260901193303 85 238 0.0 0.0 0.00 0.00 0.00 59 1011.4
20260901192803 85 238 0.0 0.0 0.00 0.00 0.00 59 1011.4
20260901192306 85 238 0.0 0.0 0.00 0.00 0.00 59 1011.3
20260901191803 85 238 0.0 0.9 0.00 0.00 0.00 59 1011.3
20260901191303 85 238 0.0 2.6 0.00 0.00 0.00 59 1011.3
20260901190804 85 238 0.9 4.3 0.00 0.00 0.00 59 1011.3
20260901190303 85 237 0.9 2.6 0.00 0.00 0.00 59 1011.5
20260901185306 86 228 0.9 2.6 0.00 0.00 0.00 58 1011.5
20260901184803 86 149 0.0 2.6 0.00 0.00 0.00 58 1011.4
20260901184304 86 142 0.9 2.6 0.00 0.00 0.00 58 1011.4
20260901183303 86 262 1.7 2.6 0.00 0.00 0.00 58 1011.7
20260901182803 87 243 1.7 4.3 0.00 0.00 0.00 58 1011.8
20260901182305 89 328 1.7 4.3 0.00 0.00 0.00 58 1011.9
20260901181303 88 273 1.7 5.2 0.00 0.00 0.00 58 1012.1
20260901180804 88 294 1.7 4.3 0.00 0.00 0.00 58 1012.1
20260901180303 88 280 1.7 4.3 0.00 0.00 0.00 58 1012.1
20260901175305 88 222 1.7 2.6 0.00 0.00 0.00 62 1012.3
20260901174804 88 235 0.9 5.2 0.00 0.00 0.00 62 1012.3
20260901174304 88 259 0.9 2.6 0.00 0.00 0.00 62 1012.2
20260901173803 87 79 1.7 2.6 0.00 0.00 0.00 62 1012.2
20260901173304 86 148 0.9 2.6 0.00 0.00 0.00 62 1012.2
20260901172305 86 201 0.9 2.6 0.00 0.00 0.00 62 1012.3
20260901171303 86 38 1.7 4.3 0.00 0.00 0.00 62 1012.5
20260901170803 85 277 2.6 4.3 0.00 0.00 0.00 62 1012.6
20260901170303 85 285 1.7 7.0 0.00 0.00 0.00 62 1012.6
20260901165306 84 250 0.9 5.2 0.00 0.00 0.00 63 1012.6
20260901164804 84 263 1.7 4.3 0.00 0.00 0.00 63 1012.6
20260901164304 84 331 2.6 6.1 0.00 0.00 0.00 63 1012.7
20260901163803 84 302 0.9 2.6 0.00 0.00 0.00 63 1012.8
20260901163304 84 314 0.9 4.3 0.00 0.00 0.00 63 1012.9
20260901162803 82 298 0.9 7.0 0.00 0.00 0.00 63 1012.9
20260901162306 82 345 2.6 5.2 0.00 0.00 0.00 63 1012.8
20260901161803 82 344 0.9 6.1 0.00 0.00 0.00 63 1012.8
20260901161303 82 330 2.6 5.2 0.00 0.00 0.00 63 1012.8
20260901160803 82 22 2.6 7.0 0.00 0.00 0.00 63 1012.8
20260901155804 81 28 1.7 2.6 0.00 0.00 0.00 73 1012.8
20260901155306 81 44 1.7 5.2 0.00 0.00 0.00 73 1012.7
20260901154303 80 335 0.9 2.6 0.00 0.00 0.00 73 1012.7
20260901153803 80 308 0.9 2.6 0.00 0.00 0.00 73 1012.6
20260901153303 80 19 1.7 4.3 0.00 0.00 0.00 73 1012.6
20260901152803 79 342 1.7 5.2 0.00 0.00 0.00 73 1012.6
20260901152305 79 359 0.9 4.3 0.00 0.00 0.00 73 1012.5
20260901151803 79 330 4.3 7.0 0.00 0.00 0.00 73 1012.6